MPEC 2008-E24 : 2008 EH

The following Minor Planet Electronic Circular may be linked-to from your own Web pages, but must not otherwise be redistributed electronically.


Read MPEC 2008-E23 Read MPEC 2008-E25


M.P.E.C. 2008-E24                                Issued 2008 Mar. 3, 13:01 UT

     The Minor Planet Electronic Circulars contain information on unusual
         minor planets and routine data on comets.  They are published
   on behalf of Commission 20 of the International Astronomical Union by the
          Minor Planet Center, Smithsonian Astrophysical Observatory,
                          Cambridge, MA 02138, U.S.A.

             Prepared using the Tamkin Foundation Computer Network

                              MPC@CFA.HARVARD.EDU
          URL http://www.cfa.harvard.edu/iau/mpc.html  ISSN 1523-6714

                                    2008 EH

Observations:
     K08E00H* C2008 03 01.28593 09 02 36.96 +33 24 38.4          21.1 V EE024G96
     K08E00H  C2008 03 01.28812 09 02 36.74 +33 24 40.0          21.2 V EE024G96
     K08E00H  C2008 03 01.29263 09 02 36.09 +33 24 43.7          21.1 V EE024G96
     K08E00H  C2008 03 01.35155 09 02 28.10 +33 25 30.6          20.8 V EE024G96
     K08E00H  C2008 03 01.35809 09 02 27.27 +33 25 36.0          20.1 V EE024G96
     K08E00H  C2008 03 01.36460 09 02 26.37 +33 25 41.0          20.4 V EE024G96
     K08E00H  C2008 03 01.37112 09 02 25.54 +33 25 46.2          21.0 V EE024G96
     K08E00H 1C2008 03 02.20098 09 00 47.26 +33 37 28.1                 EE024658
     K08E00H 1C2008 03 02.20693 09 00 46.50 +33 37 33.8                 EE024658
     K08E00H 1C2008 03 02.21288 09 00 45.73 +33 37 36.7                 EE024658
     K08E00H  C2008 03 03.26043 08 58 34.57 +33 52 30.9          21.1 V EE024G96
     K08E00H  C2008 03 03.26388 08 58 34.06 +33 52 33.0          21.6 V EE024G96
     K08E00H  C2008 03 03.26737 08 58 33.60 +33 52 35.9          21.2 V EE024G96
     K08E00H  C2008 03 03.27089 08 58 32.98 +33 52 40.4          22.7 V EE024G96

Observer details:
658 National Research Council of Canada.  Observer R. M. Robb.  Measurer
    D. D. Balam.  1.82-m Plaskett telescope + CCD.
G96 Mt. Lemmon Survey.  Observer E. Beshore.  Measurers E. C. Beshore,
    A. Boattini, G. J. Garradd, A. R. Gibbs, A. D. Grauer, R. E. Hill,
    R. A. Kowalski, S. M. Larson, R. H. McNaught.  1.5-m reflector + CCD.

Orbital elements:
2008 EH                                                  Earth MOID = 0.0191 AU
Epoch 2008 Feb. 24.0 TT = JDT 2454520.5                 MPC
M 342.48487              (2000.0)            P               Q
n   0.29580305     Peri.  185.17510     -0.81956577     +0.57211703
a   2.2308359      Node    29.79259     -0.52340060     -0.72511769
e   0.5661561      Incl.    3.63817     -0.23316038     -0.38325767
P   3.33           H   22.8           G   0.15
From 14 observations 2008 Mar. 1-3.

Ephemeris:
2008 EH                  a,e,i = 2.23, 0.57, 4                   q = 0.9678
Date    TT    R. A. (2000) Decl.     Delta      r     Elong.  Phase     V
2008 02 24    09 14.50   +31 51.9    0.257    1.223   152.4    22.0    21.3
2008 03 05    08 54.90   +34 16.4    0.205    1.154   139.0    34.3    21.1
2008 03 15    08 31.58   +36 21.1    0.158    1.092   124.6    48.5    20.8
2008 03 25    08 01.10   +38 13.5    0.114    1.040   109.0    65.1    20.5
2008 04 04    07 01.15   +40 06.3    0.0700   1.000    87.8    88.2    20.1
2008 04 14    03 42.29   +31 45.6    0.0353   0.975    37.9   140.8    22.5
2008 04 24    23 50.94   -09 13.4    0.0505   0.968    40.4   137.6    22.8
2008 05 04    22 49.03   -20 57.7    0.0943   0.978    68.7   106.1    21.6
2008 05 14    22 28.78   -24 23.8    0.139    1.005    83.8    88.2    21.6
2008 05 24    22 18.34   -26 02.9    0.182    1.047    96.0    74.1    21.8
2008 06 03    22 08.59   -27 18.1    0.220    1.101   107.7    61.3    21.9
2008 06 13    21 55.59   -28 31.3    0.256    1.165   120.0    49.1    22.0
2008 06 23    21 38.36   -29 39.5    0.293    1.234   132.9    37.1    22.1
2008 07 03    21 17.70   -30 31.3    0.335    1.309   146.2    25.6    22.2
2008 07 13    20 56.14   -30 54.0    0.388    1.386   158.8    15.4    22.3
2008 07 23    20 36.87   -30 43.7    0.456    1.464   167.8     8.4    22.5

Timothy B. Spahr             (C) Copyright 2008 MPC           M.P.E.C. 2008-E24

Read MPEC 2008-E23 Read MPEC 2008-E25


Our Web policy. Index to the CBAT/MPC/ICQ pages.

MPC

Valid HTML 4.01!